FW9243 Weather Reports


time (UTC)temp
C
wind
direction
speed
KPH
gust
KPH
rain 1hr
cm
rain 24hr
cm
rain mn
cm
humidity
%
barometer
mb
20260503200359 12 20 1.6 4.8 0.00 0.05 0.05 85 1014.3
20260503200036 12 325 1.6 1.6 0.00 2.26 2.26 100 1014.7
20260503195849 12 269 1.6 3.2 0.00 0.05 0.05 85 1014.3
20260503195558 12 344 0.0 3.2 0.00 0.05 0.05 85 1014.3
20260503194837 12 331 0.0 3.2 0.00 0.08 0.05 85 1014.3
20260503194600 12 320 1.6 3.2 0.00 0.08 0.05 84 1014.1
20260503194537 12 239 1.6 3.2 0.00 2.26 2.26 100 1014.6
20260503193835 12 314 1.6 6.4 0.00 0.08 0.05 84 1014.0
20260503193331 12 331 1.6 6.4 0.00 0.10 0.05 84 1014.0
20260503193056 13 296 1.6 4.8 0.00 0.10 0.05 84 1013.9
20260503193037 12 312 1.6 4.8 0.00 2.26 2.26 100 1014.3
20260503192331 13 320 3.2 4.8 0.00 0.15 0.05 84 1013.8
20260503191830 13 45 0.0 3.2 0.00 0.15 0.05 84 1013.9
20260503191538 12 0 1.6 4.8 0.00 2.26 2.26 100 1014.3
20260503191331 13 341 1.6 6.4 0.00 0.15 0.05 84 1013.8
20260503190830 13 279 1.6 6.4 0.00 0.18 0.05 83 1013.8
20260503190331 13 72 3.2 4.8 0.00 0.18 0.05 84 1013.6
20260503190039 13 0 1.6 4.8 0.00 2.26 2.26 100 1014.1
20260503185803 13 343 3.2 4.8 0.00 0.23 0.05 84 1013.6
20260503185304 13 327 1.6 4.8 0.00 0.36 0.05 83 1013.6
20260503184803 13 331 1.6 11.3 0.00 0.51 0.05 83 1013.5
20260503184749 13 351 4.8 11.3 0.00 0.58 0.05 83 1013.6
20260503184536 13 232 1.6 3.2 0.00 2.26 2.26 100 1014.1
20260503183804 13 329 1.6 4.8 0.00 0.64 0.05 83 1013.5
20260503183302 13 303 1.6 4.8 0.00 0.64 0.05 83 1013.5
20260503183036 13 34 3.2 6.4 0.00 2.26 2.26 100 1014.1
20260503182804 13 341 3.2 8.0 0.00 0.64 0.05 83 1013.6
20260503182304 13 296 3.2 9.7 0.00 0.64 0.05 82 1013.5
20260503181804 13 293 4.8 9.7 0.00 0.64 0.05 82 1013.5
20260503181535 14 316 4.8 12.9 0.00 2.26 2.26 100 1014.1
20260503181302 13 305 6.4 9.7 0.00 0.64 0.05 81 1013.5
20260503180804 13 250 1.6 9.7 0.00 0.64 0.05 81 1013.6
20260503180302 13 348 4.8 14.5 0.00 0.64 0.05 80 1013.5
20260503180045 14 314 1.6 6.4 0.00 2.26 2.26 99 1014.1
20260503175803 13 338 3.2 14.5 0.00 0.64 0.05 79 1013.4
20260503175304 14 331 4.8 9.7 0.00 0.64 0.05 77 1013.4
20260503175022 14 353 4.8 14.5 0.00 0.66 0.05 76 1013.5
20260503174539 14 298 6.4 12.9 0.00 2.26 2.26 95 1014.1
20260503174302 14 341 6.4 14.5 0.00 0.66 0.05 76 1013.4
20260503173803 15 275 6.4 14.5 0.00 0.66 0.05 77 1013.4
20260503173302 15 269 6.4 14.5 0.00 0.66 0.05 77 1013.3
20260503173039 14 336 4.8 8.0 2.26 2.26 2.26 77 1013.9
20260503173033 15 269 4.8 11.3 0.00 0.66 0.05 77 1013.3
20260503172304 15 331 4.8 14.5 0.00 0.66 0.05 78 1013.3
20260503171804 15 331 4.8 16.1 0.00 0.69 0.05 77 1013.2
20260503171543 15 289 6.4 8.0 2.26 2.26 2.26 96 1013.8
20260503171303 15 333 9.7 16.1 0.00 0.69 0.05 77 1013.3
20260503170803 15 329 3.2 8.0 0.00 0.71 0.05 77 1013.2
20260503170519 15 347 4.8 8.0 0.00 0.76 0.05 77 1013.2
20260503150803 14 45 3.2 11.3 0.00 1.12 0.05 80 1013.2
20260503150301 14 300 3.2 11.3 0.00 1.12 0.05 80 1013.3
20260503131302 13 32 3.2 4.8 0.00 1.12 0.05 93 1013.4
20260503130804 13 63 3.2 4.8 0.00 1.12 0.05 93 1013.5
20260503130302 13 66 1.6 3.2 0.00 1.12 0.05 93 1013.4
20260503110302 -17 278 3.2 3.2 0.00 1.09 0.00 1013.8
20260503100214 -17 0.0 0.0 0.00 1.09 0.00 1013.5
20260503090427 12 314 1.6 4.8 0.00 1.09 0.00 96 1013.5
20260503081537 12 0 0.0 1.6 0.00 0.00 0.00 100 1014.2
20260503081202 11 1 1.6 3.2 0.00 1.09 0.00 96 1013.6
20260503080703 11 54 1.6 4.8 0.00 1.09 0.00 96 1013.6
20260503080201 12 348 1.6 4.8 0.00 1.09 0.00 96 1013.6
20260503072703 12 206 1.6 3.2 0.00 1.09 0.00 95 1013.4
20260503072202 12 223 1.6 3.2 0.00 1.09 0.00 95 1013.4
20260503071703 12 216 1.6 3.2 0.00 1.09 0.00 95 1013.3
20260503071548 12 221 0.0 1.6 0.00 0.00 0.00 100 1013.9
20260503071203 12 45 1.6 1.6 0.00 1.09 0.00 95 1013.3
20260503070703 12 223 1.6 3.2 0.00 1.09 0.00 95 1013.3
20260503070201 12 45 1.6 3.2 0.00 1.09 0.00 95 1013.2
20260503060202 11 178 0.0 1.6 0.00 1.09 0.00 95 1012.9
20260503054704 11 223 0.0 1.6 0.00 1.09 0.00 95 1012.9
20260503054553 12 0 0.0 1.6 0.00 0.00 0.00 100 1013.4
20260503054202 11 45 0.0 1.6 0.00 1.09 0.00 95 1012.8
20260503053703 11 89 0.0 3.2 0.00 1.09 0.00 95 1012.7
20260503053203 11 152 1.6 3.2 0.00 1.09 0.00 95 1012.8
20260503053039 12 162 0.0 1.6 0.00 0.00 0.00 100 1013.3
20260503052703 11 63 0.0 3.2 0.00 1.09 0.00 95 1012.8
20260503052202 11 145 1.6 1.6 0.00 1.09 0.00 95 1012.8
20260503051704 11 178 0.0 1.6 0.00 1.09 0.00 95 1012.7
20260503051540 12 0 0.0 1.6 0.00 0.00 0.00 100 1013.3
20260503051202 11 223 0.0 1.6 0.00 1.09 0.00 95 1012.7
20260503050704 11 178 0.0 1.6 0.00 1.09 0.00 95 1012.7
20260503050202 11 206 0.0 1.6 0.00 1.09 0.00 95 1012.8
20260503050040 12 153 0.0 1.6 0.00 0.00 0.00 100 1013.3
20260503045703 11 178 1.6 1.6 0.00 1.09 0.00 95 1012.7
20260503045202 11 178 0.0 1.6 0.00 1.09 0.00 95 1012.7
20260503044704 11 45 0.0 1.6 0.00 1.09 0.00 95 1012.7
20260503044534 12 0 0.0 1.6 0.00 0.00 0.00 100 1013.2
20260503044202 12 206 0.0 1.6 0.00 1.09 0.00 95 1012.7
20260503043703 12 178 0.0 1.6 0.00 1.09 0.00 95 1012.7
20260503043201 12 178 0.0 1.6 0.00 1.09 0.00 95 1012.7
20260503043035 12 0 0.0 1.6 0.00 0.00 0.00 100 1013.3
20260503042704 12 178 0.0 1.6 0.00 1.09 0.00 95 1012.8
20260503042202 12 223 0.0 1.6 0.00 1.09 0.00 95 1012.7
20260503041926 12 152 1.6 1.6 0.00 1.09 0.00 95 1012.7
20260503041539 12 153 0.0 1.6 0.00 0.00 0.00 100 1013.3
20260503041202 12 178 0.0 1.6 0.00 1.09 0.00 95 1012.8
20260503040703 12 178 1.6 1.6 0.00 1.09 0.00 95 1012.8
20260503040203 12 241 0.0 3.2 0.00 1.09 0.00 95 1012.8
20260503040051 12 0 0.0 1.6 0.00 0.00 0.00 100 1013.4
20260503035703 12 45 0.0 3.2 0.00 1.09 0.00 95 1012.8
20260503035202 12 219 1.6 3.2 0.00 1.09 0.00 95 1012.9
20260503034704 12 178 0.0 1.6 0.00 1.09 0.00 95 1012.9
20260503034539 12 0 0.0 1.6 0.00 0.00 0.00 100 1013.5
20260503034202 12 223 1.6 1.6 0.00 1.09 0.00 95 1013.0
20260503033703 12 223 1.6 1.6 0.00 1.09 0.00 95 1013.0
20260503033202 12 269 1.6 1.6 0.00 1.09 0.00 95 1013.0
20260503033039 12 196 0.0 1.6 0.00 0.00 0.00 100 1013.5
20260503032702 12 178 0.0 1.6 0.00 1.09 0.00 95 1013.1
20260503032423 12 223 0.0 1.6 0.00 1.09 0.00 95 1013.1
20260503031704 12 45 0.0 1.6 0.00 1.09 0.00 95 1013.1
20260503031535 12 0 0.0 1.6 0.00 0.00 0.00 100 1013.6
20260503031202 12 223 0.0 1.6 0.00 1.09 0.00 95 1013.0
20260503030923 12 45 0.0 1.6 0.00 1.09 0.00 95 1013.0
20260503030203 12 269 1.6 1.6 0.00 1.09 0.00 95 1013.0
20260503030045 12 196 0.0 1.6 0.00 0.00 0.00 100 1013.6
20260503025704 12 178 1.6 1.6 0.00 1.09 0.00 95 1013.0
20260503025427 12 45 0.0 1.6 0.00 1.09 0.00 95 1013.1
20260503024704 12 223 0.0 1.6 0.00 1.09 0.00 95 1013.1
20260503024540 12 221 0.0 1.6 0.00 0.00 0.00 100 1013.7
20260503024202 12 206 0.0 1.6 0.00 1.09 0.00 95 1013.1
20260503023704 12 178 0.0 1.6 0.00 1.09 0.00 95 1013.1
20260503023427 12 223 0.0 1.6 0.00 1.09 0.00 95 1013.2
20260503023039 12 0 0.0 1.6 0.00 0.00 0.00 100 1013.7
20260503022704 12 178 0.0 1.6 0.00 1.09 0.00 95 1013.2
20260503022427 12 213 1.6 1.6 0.00 1.09 0.00 95 1013.2
20260503021704 12 45 0.0 1.6 0.00 1.09 0.00 95 1013.2
20260503021539 12 0 0.0 0.0 0.00 0.00 0.00 100 1013.8
20260503021427 12 241 0.0 1.6 0.00 1.09 0.00 95 1013.2
20260503020704 12 223 0.0 1.6 0.00 1.09 0.00 95 1013.3
20260503020202 12 178 0.0 1.6 0.00 1.09 0.00 95 1013.2
20260503020037 12 0 0.0 1.6 0.00 0.00 0.00 100 1013.9
20260503015703 12 250 0.0 1.6 0.00 1.09 0.00 95 1013.4
20260503015202 12 296 1.6 1.6 0.00 1.09 0.00 95 1013.3
20260503014704 12 269 0.0 3.2 0.00 1.09 0.00 95 1013.4
20260503014540 12 0 0.0 1.6 0.00 0.00 0.00 100 1014.0
20260503014422 12 269 1.6 3.2 0.00 1.09 0.00 95 1013.4
20260503013704 12 206 0.0 1.6 0.00 1.09 0.00 95 1013.4
20260503013202 12 178 0.0 1.6 0.00 1.09 0.00 95 1013.5
20260503013038 12 221 0.0 1.6 0.00 0.00 0.00 100 1014.1
20260503012703 12 223 0.0 1.6 0.00 1.09 0.00 95 1013.6
20260503012202 12 206 0.0 1.6 0.00 1.09 0.00 95 1013.6
20260503011703 12 45 0.0 1.6 0.00 1.09 0.00 95 1013.6
20260503011535 12 0 0.0 1.6 0.00 0.00 0.00 100 1014.3
20260503011203 12 45 0.0 1.6 0.00 1.09 0.00 95 1013.8
20260503010704 12 223 0.0 1.6 0.00 1.09 0.00 95 1013.8
20260503010202 12 223 1.6 1.6 0.00 1.09 0.00 95 1013.9
20260503010038 12 0 0.0 1.6 0.00 0.00 0.00 100 1014.4
20260503005703 12 223 1.6 1.6 0.00 1.09 0.00 95 1014.0
20260503005202 12 223 0.0 1.6 0.00 1.09 0.00 95 1014.0
20260503004703 12 269 1.6 1.6 0.00 1.09 0.00 95 1014.1
20260503004537 12 0 0.0 1.6 0.00 0.00 0.00 100 1014.5
20260503004202 12 178 0.0 1.6 0.00 1.09 0.00 95 1014.0
20260503003931 12 223 0.0 1.6 0.00 1.09 0.00 95 1014.1
20260503003202 12 178 0.0 1.6 0.00 1.09 0.00 95 1014.1
20260503003036 12 0 0.0 1.6 0.00 0.00 0.00 100 1014.5
20260503002703 12 269 0.0 1.6 0.00 1.09 0.00 95 1014.1
20260503002203 12 178 0.0 1.6 0.00 1.09 0.00 95 1014.2
20260503001704 12 178 0.0 1.6 0.00 1.09 0.00 95 1014.3
20260503001551 12 0 0.0 1.6 0.00 0.00 0.00 100 1014.7
20260503001202 12 206 0.0 1.6 0.00 1.09 0.00 95 1014.3
20260503001143 12 152 0.0 1.6 0.00 1.09 0.00 95 1014.3
20260503000203 12 206 0.0 1.6 0.00 1.09 0.00 95 1014.4
20260503000035 12 221 0.0 1.6 0.00 0.00 0.00 100 1014.7
20260502235919 12 206 0.0 1.6 0.00 1.09 0.00 95 1014.4
20260502235902 12 197 0.0 1.6 0.00 1.09 0.00 95 1014.4
20260502234703 12 269 0.0 1.6 0.00 1.09 0.00 95 1014.4
20260502234543 12 0 0.0 1.6 0.00 0.00 0.00 100 1014.9
20260502234202 12 206 0.0 1.6 0.00 1.09 0.00 95 1014.4
20260502233930 12 45 0.0 1.6 0.00 1.09 0.00 95 1014.5
20260502233202 12 206 0.0 1.6 0.00 1.09 0.00 95 1014.5
20260502233042 12 51 0.0 3.2 0.00 0.00 0.00 100 1014.9
20260502232703 12 178 1.6 1.6 0.00 1.09 0.00 95 1014.5
20260502232425 12 145 1.6 1.6 0.00 1.09 0.00 95 1014.5
20260502231704 12 223 1.6 1.6 0.00 1.09 0.00 95 1014.5
20260502231538 12 0 0.0 1.6 0.00 0.00 0.00 100 1014.8
20260502231202 12 206 0.0 1.6 0.00 1.09 0.00 95 1014.5
20260502230703 12 45 0.0 1.6 0.00 1.09 0.00 95 1014.6
20260502230202 12 206 0.0 1.6 0.00 1.09 0.00 95 1014.5
20260502230036 12 0 0.0 1.6 0.00 0.00 0.00 100 1015.0
20260502225703 12 206 0.0 3.2 0.00 1.09 0.00 95 1014.6
20260502225202 12 178 1.6 3.2 0.00 1.09 0.00 95 1014.5
20260502224704 12 152 0.0 3.2 0.00 1.09 0.00 95 1014.6
20260502224535 12 0 0.0 1.6 0.00 0.00 0.00 100 1015.0
20260502224201 12 178 0.0 1.6 0.00 1.09 0.00 95 1014.7
20260502223929 12 197 0.0 1.6 0.00 1.09 0.00 95 1014.7
20260502223202 12 223 0.0 3.2 0.00 1.09 0.00 95 1014.7
20260502223042 12 0 0.0 1.6 0.00 0.00 0.00 100 1015.1
20260502222703 12 178 1.6 3.2 0.00 1.09 0.00 95 1014.7
20260502222202 12 223 1.6 3.2 0.00 1.09 0.00 95 1014.7
20260502221926 12 213 1.6 3.2 0.00 1.09 0.00 95 1014.6
20260502221542 12 0 0.0 3.2 0.00 0.00 0.00 100 1015.1
20260502221203 12 314 1.6 3.2 0.00 1.09 0.00 95 1014.6
20260502220704 12 117 1.6 3.2 0.00 1.09 0.00 95 1014.6
20260502220202 12 145 1.6 6.4 0.00 1.09 0.00 95 1014.6
20260502220038 12 162 1.6 4.8 0.00 0.00 0.00 100 1015.1
20260502215705 12 161 3.2 6.4 0.00 1.09 1.09 95 1014.8
20260502215202 12 157 3.2 4.8 0.00 1.09 1.09 95 1014.7
20260502214704 12 178 3.2 6.4 0.00 1.09 1.09 95 1014.7
20260502214534 12 169 1.6 6.4 0.00 0.00 0.00 100 1015.2
20260502214202 12 148 3.2 6.4 0.00 1.09 1.09 95 1014.8
20260502213704 12 165 3.2 6.4 0.00 1.09 1.09 95 1014.9
20260502213202 12 171 3.2 6.4 0.00 1.09 1.09 95 1014.8
20260502213152 12 161 3.2 6.4 0.00 1.09 1.09 95 1014.8
20260502213039 12 153 3.2 3.2 0.00 0.00 0.00 100 1015.2
20260502212203 12 157 3.2 6.4 0.00 1.09 1.09 95 1014.8
20260502211921 12 171 3.2 4.8 0.00 1.09 1.09 95 1014.9
20260502211540 12 164 1.6 3.2 0.00 0.00 0.00 100 1015.3
20260502211425 12 161 1.6 1.6 0.00 1.09 1.09 95 1014.9
20260502210704 12 269 1.6 1.6 0.00 1.09 1.09 95 1014.9
20260502210203 12 152 1.6 1.6 0.00 1.09 1.09 95 1014.9
20260502210034 12 0 0.0 1.6 0.00 0.00 0.00 100 1015.3
20260502205704 12 165 0.0 3.2 0.00 1.09 1.09 95 1014.9
20260502205204 12 135 0.0 3.2 0.00 1.09 1.09 95 1014.8
20260502204922 12 178 0.0 1.6 0.00 1.09 1.09 95 1014.8
20260502204541 12 178 0.0 1.6 0.00 0.00 0.00 100 1015.3
20260502204204 12 178 1.6 3.2 0.03 1.09 1.09 95 1014.8
20260502203927 12 161 1.6 3.2 0.05 1.09 1.09 94 1014.7
20260502203203 12 89 0.0 1.6 0.05 1.09 1.09 94 1014.7
20260502203037 12 0 0.0 1.6 0.00 0.00 0.00 100 1015.1
20260502202703 12 135 0.0 1.6 0.05 1.09 1.09 94 1014.8
20260502202430 12 45 0.0 1.6 0.08 1.09 1.09 94 1014.7
20260502201704 12 178 0.0 1.6 0.10 1.09 1.09 94 1014.6
20260502201657 12 206 0.0 1.6 0.10 1.09 1.09 94 1014.6
20260502201545 12 0 0.0 1.6 0.00 0.00 0.00 100 1015.0
20260502200704 12 178 1.6 1.6 0.13 1.09 1.09 94 1014.5